Location: Aufkirchen
(47.9603°N, 11.3653°E)
Time: 06:58:23
(UTC+01:00)

Transit 2A - Pass Details

Date: 03 December 2020
Orbit: 599 x 960 km, 66.7° (Epoch: 25 January)

Event Time Altitude Azimuth Distance (km) Brightness Sun altitude
Rises 02:52:25 0° 311° (NW) 3,217 - -47.8°
Reaches altitude 10° 02:56:01 10° 287° (WNW) 2,201 - -47.2°
Maximum altitude 02:58:28 14° 257° (WSW) 1,898 - -46.9°
Drops below altitude 10° 03:00:49 10° 227° (SW) 2,089 - -46.5°
Sets 03:04:04 0° 201° (SSW) 2,932 - -46.0°
